Time,TemperatureF,DewpointF,PressureIn,WindDirection,WindDirectionDegrees,WindSpeedMPH,WindSpeedGustMPH,Humidity,HourlyPrecipIn,Conditions,Clouds,dailyrainin,SoftwareType,DateUTC
2013-01-10 00:02:00,38.0,17.0,30.11,North,349,0.0,0.0,42,0.00,,,0.00,,2013-01-10 07:02:00,
2013-01-10 00:12:00,38.0,17.0,30.11,North,349,0.0,0.0,42,0.00,,,0.00,,2013-01-10 07:12:00,
2013-01-10 00:22:00,37.0,18.0,30.11,North,349,0.0,0.0,45,0.00,,,0.00,,2013-01-10 07:22:00,
2013-01-10 00:32:00,36.0,16.0,30.10,North,349,0.0,0.0,44,0.00,,,0.00,,2013-01-10 07:32:00,
2013-01-10 00:42:00,36.0,16.0,30.10,North,349,0.0,0.0,44,0.00,,,0.00,,2013-01-10 07:42:00,
2013-01-10 00:52:00,35.0,16.0,30.09,North,349,0.0,0.0,46,0.00,,,0.00,,2013-01-10 07:52:00,
2013-01-10 01:01:00,35.0,17.0,30.09,North,349,0.0,0.0,48,0.00,,,0.00,,2013-01-10 08:01:00,
2013-01-10 01:12:00,35.0,17.0,30.09,North,349,0.0,0.0,48,0.00,,,0.00,,2013-01-10 08:12:00,
2013-01-10 01:22:00,34.0,18.0,30.09,North,349,0.0,0.0,52,0.00,,,0.00,,2013-01-10 08:22:00,
2013-01-10 01:32:00,33.0,19.0,30.09,North,349,0.0,0.0,55,0.00,,,0.00,,2013-01-10 08:32:00,
2013-01-10 01:42:00,33.0,19.0,30.09,North,349,0.0,0.0,55,0.00,,,0.00,,2013-01-10 08:42:00,
2013-01-10 01:53:00,33.0,19.0,30.08,NW,309,0.0,2.0,55,0.00,,,0.00,,2013-01-10 08:53:00,
2013-01-10 02:02:00,33.0,18.0,30.08,NW,309,0.0,0.0,53,0.00,,,0.00,,2013-01-10 09:02:00,
2013-01-10 02:12:00,33.0,18.0,30.08,NW,309,0.0,0.0,53,0.00,,,0.00,,2013-01-10 09:12:00,
2013-01-10 02:22:00,33.0,18.0,30.07,NW,309,0.0,0.0,54,0.00,,,0.00,,2013-01-10 09:22:00,
2013-01-10 02:32:00,32.0,18.0,30.07,NW,309,0.0,0.0,56,0.00,,,0.00,,2013-01-10 09:32:00,
2013-01-10 02:42:00,32.0,18.0,30.07,NW,309,0.0,0.0,56,0.00,,,0.00,,2013-01-10 09:42:00,
2013-01-10 02:52:00,31.0,18.0,30.08,NW,309,0.0,0.0,58,0.00,,,0.00,,2013-01-10 09:52:00,
2013-01-10 03:02:00,31.0,19.0,30.07,NW,309,0.0,0.0,60,0.00,,,0.00,,2013-01-10 10:02:00,
2013-01-10 03:12:00,31.0,19.0,30.07,NW,309,0.0,0.0,60,0.00,,,0.00,,2013-01-10 10:12:00,
2013-01-10 03:22:00,31.0,19.0,30.07,NW,309,0.0,0.0,61,0.00,,,0.00,,2013-01-10 10:22:00,
2013-01-10 03:32:00,30.0,19.0,30.08,NW,311,0.0,4.0,63,0.00,,,0.00,,2013-01-10 10:32:00,
2013-01-10 03:42:00,30.0,19.0,30.08,NW,311,0.0,4.0,63,0.00,,,0.00,,2013-01-10 10:42:00,
2013-01-10 03:52:00,29.0,18.0,30.07,NW,308,0.0,1.0,63,0.00,,,0.00,,2013-01-10 10:52:00,
2013-01-10 04:02:00,30.0,19.0,30.06,NW,308,0.0,0.0,63,0.00,,,0.00,,2013-01-10 11:02:00,
2013-01-10 04:12:00,30.0,19.0,30.06,NW,308,0.0,0.0,63,0.00,,,0.00,,2013-01-10 11:12:00,
2013-01-10 04:22:00,30.0,18.0,30.06,NW,308,0.0,0.0,61,0.00,,,0.00,,2013-01-10 11:22:00,
2013-01-10 04:32:00,30.0,19.0,30.05,NW,308,0.0,0.0,62,0.00,,,0.00,,2013-01-10 11:32:00,
2013-01-10 04:42:00,30.0,19.0,30.05,NW,308,0.0,0.0,62,0.00,,,0.00,,2013-01-10 11:42:00,
2013-01-10 04:53:00,30.0,19.0,30.04,NW,308,0.0,0.0,62,0.00,,,0.00,,2013-01-10 11:53:00,
2013-01-10 05:02:00,30.0,19.0,30.04,NW,308,0.0,0.0,64,0.00,,,0.00,,2013-01-10 12:02:00,
2013-01-10 05:12:00,30.0,19.0,30.04,NW,308,0.0,0.0,64,0.00,,,0.00,,2013-01-10 12:12:00,
2013-01-10 05:22:00,29.0,19.0,30.04,South,184,0.0,2.0,66,0.00,,,0.00,,2013-01-10 12:22:00,
2013-01-10 05:32:00,29.0,20.0,30.04,South,184,0.0,0.0,68,0.00,,,0.00,,2013-01-10 12:32:00,
2013-01-10 05:42:00,29.0,20.0,30.04,South,184,0.0,0.0,68,0.00,,,0.00,,2013-01-10 12:42:00,
2013-01-10 05:53:00,29.0,19.0,30.04,South,184,0.0,0.0,66,0.00,,,0.00,,2013-01-10 12:53:00,
2013-01-10 06:02:00,28.0,19.0,30.04,South,184,0.0,0.0,69,0.00,,,0.00,,2013-01-10 13:02:00,
2013-01-10 06:12:00,28.0,19.0,30.04,South,184,0.0,0.0,69,0.00,,,0.00,,2013-01-10 13:12:00,
2013-01-10 06:22:00,29.0,19.0,30.05,WSW,249,1.0,3.0,67,0.00,,,0.00,,2013-01-10 13:22:00,
2013-01-10 06:32:00,29.0,18.0,30.05,West,271,0.0,0.0,64,0.00,,,0.00,,2013-01-10 13:32:00,
2013-01-10 06:42:00,29.0,18.0,30.05,West,271,0.0,0.0,64,0.00,,,0.00,,2013-01-10 13:42:00,
2013-01-10 06:53:00,29.0,18.0,30.05,West,271,0.0,0.0,63,0.00,,,0.00,,2013-01-10 13:53:00,
2013-01-10 07:02:00,29.0,18.0,30.06,WSW,239,0.0,0.0,64,0.00,,,0.00,,2013-01-10 14:02:00,
2013-01-10 07:12:00,29.0,18.0,30.06,WSW,239,0.0,0.0,64,0.00,,,0.00,,2013-01-10 14:12:00,
2013-01-10 07:22:00,28.0,18.0,30.07,WSW,238,0.0,2.0,65,0.00,,,0.00,,2013-01-10 14:22:00,
2013-01-10 07:32:00,28.0,18.0,30.07,WSW,238,0.0,0.0,66,0.00,,,0.00,,2013-01-10 14:32:00,
2013-01-10 07:43:00,28.0,18.0,30.07,WSW,238,0.0,0.0,66,0.00,,,0.00,,2013-01-10 14:43:00,
2013-01-10 07:53:00,28.0,18.0,30.07,WSW,238,0.0,0.0,65,0.00,,,0.00,,2013-01-10 14:53:00,
2013-01-10 08:03:00,29.0,18.0,30.08,WSW,238,0.0,0.0,64,0.00,,,0.00,,2013-01-10 15:03:00,
2013-01-10 08:12:00,29.0,18.0,30.08,WSW,238,0.0,0.0,64,0.00,,,0.00,,2013-01-10 15:12:00,
2013-01-10 08:22:00,30.0,18.0,30.09,WSW,238,0.0,0.0,61,0.00,,,0.00,,2013-01-10 15:22:00,
2013-01-10 08:32:00,32.0,19.0,30.10,East,93,0.0,0.0,59,0.00,,,0.00,,2013-01-10 15:32:00,
2013-01-10 08:43:00,32.0,19.0,30.10,East,93,0.0,0.0,59,0.00,,,0.00,,2013-01-10 15:43:00,
2013-01-10 08:53:00,34.0,20.0,30.10,SSE,166,0.0,3.0,55,0.00,,,0.00,,2013-01-10 15:53:00,
2013-01-10 09:02:00,35.0,19.0,30.11,ESE,110,0.0,2.0,52,0.00,,,0.00,,2013-01-10 16:02:00,
2013-01-10 09:13:00,35.0,19.0,30.11,ESE,110,0.0,2.0,52,0.00,,,0.00,,2013-01-10 16:13:00,
2013-01-10 09:23:00,37.0,19.0,30.11,ESE,110,0.0,0.0,48,0.00,,,0.00,,2013-01-10 16:23:00,
2013-01-10 09:33:00,39.0,19.0,30.10,NE,45,0.0,2.0,45,0.00,,,0.00,,2013-01-10 16:33:00,
2013-01-10 09:43:00,39.0,19.0,30.10,NE,45,0.0,2.0,45,0.00,,,0.00,,2013-01-10 16:43:00,
2013-01-10 09:53:00,40.0,18.0,30.11,NE,45,0.0,0.0,41,0.00,,,0.00,,2013-01-10 16:53:00,
2013-01-10 10:03:00,42.0,18.0,30.10,NE,45,0.0,0.0,38,0.00,,,0.00,,2013-01-10 17:03:00,
2013-01-10 10:12:00,42.0,18.0,30.10,NE,45,0.0,0.0,38,0.00,,,0.00,,2013-01-10 17:12:00,
2013-01-10 10:22:00,43.0,18.0,30.10,NE,45,0.0,0.0,36,0.00,,,0.00,,2013-01-10 17:22:00,
2013-01-10 10:33:00,45.0,18.0,30.11,South,190,2.0,4.0,34,0.00,,,0.00,,2013-01-10 17:33:00,
2013-01-10 10:42:00,45.0,18.0,30.11,South,190,2.0,4.0,34,0.00,,,0.00,,2013-01-10 17:42:00,
2013-01-10 10:53:00,47.0,19.0,30.10,SE,125,3.0,6.0,32,0.00,,,0.00,,2013-01-10 17:53:00,
2013-01-10 11:03:00,48.0,17.0,30.09,South,179,3.0,6.0,29,0.00,,,0.00,,2013-01-10 18:03:00,
2013-01-10 11:12:00,49.0,16.0,30.07,SE,141,1.0,6.0,27,0.00,,,0.00,,2013-01-10 18:12:00,
2013-01-10 11:23:00,49.0,16.0,30.07,SE,141,1.0,6.0,27,0.00,,,0.00,,2013-01-10 18:23:00,
2013-01-10 11:33:00,49.0,15.0,30.06,ESE,104,3.0,7.0,25,0.00,,,0.00,,2013-01-10 18:33:00,
2013-01-10 11:43:00,49.0,16.0,30.07,South,187,2.0,6.0,26,0.00,,,0.00,,2013-01-10 18:43:00,
2013-01-10 11:53:00,49.0,16.0,30.07,South,187,2.0,6.0,26,0.00,,,0.00,,2013-01-10 18:53:00,
2013-01-10 12:02:00,50.0,16.0,30.05,South,179,4.0,6.0,25,0.00,,,0.00,,2013-01-10 19:02:00,
2013-01-10 12:13:00,51.0,16.0,30.04,ESE,120,4.0,7.0,25,0.00,,,0.00,,2013-01-10 19:13:00,
2013-01-10 12:23:00,51.0,16.0,30.04,ESE,120,4.0,7.0,25,0.00,,,0.00,,2013-01-10 19:23:00,
2013-01-10 12:33:00,51.0,17.0,30.04,SSE,148,3.0,7.0,26,0.00,,,0.00,,2013-01-10 19:33:00,
2013-01-10 12:43:00,51.0,17.0,30.04,SSE,148,3.0,7.0,26,0.00,,,0.00,,2013-01-10 19:43:00,
2013-01-10 12:53:00,51.0,17.0,30.04,SSE,148,3.0,7.0,26,0.00,,,0.00,,2013-01-10 19:53:00,
2013-01-10 13:02:00,51.0,17.0,30.04,SSE,148,3.0,7.0,26,0.00,,,0.00,,2013-01-10 20:02:00,
2013-01-10 13:12:00,51.0,19.0,30.01,SE,132,4.0,6.0,28,0.00,,,0.00,,2013-01-10 20:12:00,
2013-01-10 13:24:00,51.0,19.0,30.01,SE,132,4.0,6.0,28,0.00,,,0.00,,2013-01-10 20:24:00,
2013-01-10 13:33:00,51.0,20.0,30.00,SSE,153,3.0,6.0,29,0.00,,,0.00,,2013-01-10 20:33:00,
2013-01-10 13:43:00,51.0,20.0,30.00,SSE,153,3.0,6.0,29,0.00,,,0.00,,2013-01-10 20:43:00,
2013-01-10 13:53:00,52.0,21.0,30.00,SSE,162,4.0,7.0,29,0.00,,,0.00,,2013-01-10 20:53:00,
2013-01-10 14:03:00,52.0,21.0,29.97,SE,135,4.0,8.0,29,0.00,,,0.00,,2013-01-10 21:03:00,
2013-01-10 14:12:00,54.0,22.0,29.98,South,180,3.0,6.0,28,0.00,,,0.00,,2013-01-10 21:12:00,
2013-01-10 14:23:00,54.0,22.0,29.98,South,180,3.0,6.0,28,0.00,,,0.00,,2013-01-10 21:23:00,
2013-01-10 14:33:00,55.0,23.0,29.97,SSE,150,3.0,5.0,28,0.00,,,0.00,,2013-01-10 21:33:00,
2013-01-10 14:42:00,55.0,23.0,29.97,SSE,150,3.0,5.0,28,0.00,,,0.00,,2013-01-10 21:42:00,
2013-01-10 14:52:00,56.0,23.0,29.97,SSW,203,5.0,10.0,27,0.00,,,0.00,,2013-01-10 21:52:00,
2013-01-10 15:03:00,57.0,22.0,29.97,SW,236,5.0,10.0,26,0.00,,,0.00,,2013-01-10 22:03:00,
2013-01-10 15:12:00,58.0,23.0,29.96,South,170,4.0,10.0,26,0.00,,,0.00,,2013-01-10 22:12:00,
2013-01-10 15:25:00,58.0,23.0,29.96,South,170,4.0,10.0,26,0.00,,,0.00,,2013-01-10 22:25:00,
2013-01-10 15:32:00,58.0,23.0,29.95,South,191,7.0,9.0,26,0.00,,,0.00,,2013-01-10 22:32:00,
2013-01-10 15:43:00,58.0,23.0,29.95,South,191,7.0,9.0,26,0.00,,,0.00,,2013-01-10 22:43:00,
2013-01-10 16:02:00,59.0,23.0,29.93,SW,224,4.0,9.0,25,0.00,,,0.00,,2013-01-10 23:02:00,
2013-01-10 16:12:00,58.0,23.0,29.93,SSE,166,5.0,8.0,26,0.00,,,0.00,,2013-01-10 23:12:00,
2013-01-10 16:22:00,58.0,23.0,29.93,SSE,166,5.0,8.0,26,0.00,,,0.00,,2013-01-10 23:22:00,
2013-01-10 16:33:00,58.0,23.0,29.93,SW,215,3.0,8.0,26,0.00,,,0.00,,2013-01-10 23:33:00,
2013-01-10 16:43:00,58.0,23.0,29.93,SW,215,3.0,8.0,26,0.00,,,0.00,,2013-01-10 23:43:00,
2013-01-10 16:53:00,58.0,23.0,29.92,SW,224,5.0,8.0,26,0.00,,,0.00,,2013-01-10 23:53:00,
2013-01-10 17:02:00,58.0,24.0,29.92,SSW,193,1.0,8.0,27,0.00,,,0.00,,2013-01-11 00:02:00,
2013-01-10 17:12:00,57.0,24.0,29.91,South,177,4.0,6.0,28,0.00,,,0.00,,2013-01-11 00:12:00,
2013-01-10 17:23:00,57.0,24.0,29.91,South,177,4.0,6.0,28,0.00,,,0.00,,2013-01-11 00:23:00,
2013-01-10 17:33:00,55.0,25.0,29.91,South,186,2.0,6.0,31,0.00,,,0.00,,2013-01-11 00:33:00,
2013-01-10 17:42:00,55.0,25.0,29.91,South,186,2.0,6.0,31,0.00,,,0.00,,2013-01-11 00:42:00,
2013-01-10 17:52:00,55.0,26.0,29.91,SE,135,0.0,4.0,32,0.00,,,0.00,,2013-01-11 00:52:00,
2013-01-10 18:03:00,53.0,25.0,29.91,SE,135,0.0,0.0,34,0.00,,,0.00,,2013-01-11 01:03:00,
2013-01-10 18:12:00,52.0,26.0,29.90,SE,146,3.0,5.0,36,0.00,,,0.00,,2013-01-11 01:12:00,
2013-01-10 18:22:00,52.0,26.0,29.90,SE,146,3.0,5.0,36,0.00,,,0.00,,2013-01-11 01:22:00,
2013-01-10 18:33:00,51.0,26.0,29.90,SSE,155,3.0,5.0,38,0.00,,,0.00,,2013-01-11 01:33:00,
2013-01-10 18:43:00,51.0,26.0,29.90,SSE,155,3.0,5.0,38,0.00,,,0.00,,2013-01-11 01:43:00,
2013-01-10 18:52:00,51.0,27.0,29.90,SSE,156,2.0,4.0,39,0.00,,,0.00,,2013-01-11 01:52:00,
2013-01-10 19:02:00,50.0,26.0,29.91,South,173,2.0,4.0,39,0.00,,,0.00,,2013-01-11 02:02:00,
2013-01-10 19:12:00,50.0,27.0,29.91,ESE,122,0.0,3.0,40,0.00,,,0.00,,2013-01-11 02:12:00,
2013-01-10 19:23:00,50.0,27.0,29.91,ESE,122,0.0,3.0,40,0.00,,,0.00,,2013-01-11 02:23:00,
2013-01-10 19:33:00,48.0,27.0,29.91,ESE,122,0.0,0.0,43,0.00,,,0.00,,2013-01-11 02:33:00,
2013-01-10 19:43:00,48.0,27.0,29.91,ESE,122,0.0,0.0,43,0.00,,,0.00,,2013-01-11 02:43:00,
2013-01-10 19:54:00,47.0,27.0,29.91,SW,218,0.0,2.0,45,0.00,,,0.00,,2013-01-11 02:54:00,
2013-01-10 20:02:00,44.0,26.0,29.91,SW,218,0.0,0.0,48,0.00,,,0.00,,2013-01-11 03:02:00,
2013-01-10 20:12:00,44.0,27.0,29.92,SW,218,0.0,0.0,51,0.00,,,0.00,,2013-01-11 03:12:00,
2013-01-10 20:22:00,44.0,27.0,29.92,SW,218,0.0,0.0,51,0.00,,,0.00,,2013-01-11 03:22:00,
2013-01-10 20:33:00,43.0,26.0,29.91,SW,218,0.0,0.0,51,0.00,,,0.00,,2013-01-11 03:33:00,
2013-01-10 20:43:00,43.0,26.0,29.91,SW,218,0.0,0.0,51,0.00,,,0.00,,2013-01-11 03:43:00,
2013-01-10 20:52:00,44.0,28.0,29.91,SE,128,1.0,3.0,52,0.00,,,0.00,,2013-01-11 03:52:00,
2013-01-10 21:02:00,44.0,28.0,29.91,West,266,0.0,4.0,52,0.00,,,0.00,,2013-01-11 04:02:00,
2013-01-10 21:12:00,45.0,28.0,29.91,WNW,293,0.0,6.0,51,0.00,,,0.00,,2013-01-11 04:12:00,
2013-01-10 21:22:00,45.0,28.0,29.91,WNW,293,0.0,6.0,51,0.00,,,0.00,,2013-01-11 04:22:00,
2013-01-10 21:33:00,45.0,28.0,29.89,South,188,0.0,2.0,51,0.00,,,0.00,,2013-01-11 04:33:00,
2013-01-10 21:42:00,45.0,28.0,29.89,South,188,0.0,2.0,51,0.00,,,0.00,,2013-01-11 04:42:00,
2013-01-10 21:52:00,45.0,28.0,29.89,SSE,152,4.0,5.0,51,0.00,,,0.00,,2013-01-11 04:52:00,
2013-01-10 22:03:00,47.0,28.0,29.89,SSE,149,0.0,7.0,47,0.00,,,0.00,,2013-01-11 05:03:00,
2013-01-10 22:12:00,47.0,28.0,29.89,SSE,149,0.0,7.0,47,0.00,,,0.00,,2013-01-11 05:12:00,
2013-01-10 22:22:00,48.0,28.0,29.90,SSW,207,6.0,8.0,45,0.00,,,0.00,,2013-01-11 05:22:00,
2013-01-10 22:33:00,48.0,28.0,29.88,South,177,6.0,12.0,46,0.00,,,0.00,,2013-01-11 05:33:00,
2013-01-10 22:42:00,48.0,28.0,29.88,South,177,6.0,12.0,46,0.00,,,0.00,,2013-01-11 05:42:00,
2013-01-10 22:52:00,49.0,29.0,29.88,SSE,158,10.0,12.0,45,0.00,,,0.00,,2013-01-11 05:52:00,
2013-01-10 23:02:00,49.0,27.0,29.87,South,174,7.0,12.0,43,0.00,,,0.00,,2013-01-11 06:02:00,
2013-01-10 23:12:00,49.0,27.0,29.87,South,174,7.0,12.0,43,0.00,,,0.00,,2013-01-11 06:12:00,
2013-01-10 23:22:00,49.0,28.0,29.86,SSE,159,6.0,9.0,44,0.00,,,0.00,,2013-01-11 06:22:00,
2013-01-10 23:32:00,50.0,27.0,29.85,SW,221,5.0,12.0,41,0.00,,,0.00,,2013-01-11 06:32:00,
2013-01-10 23:42:00,50.0,27.0,29.85,SW,221,5.0,12.0,41,0.00,,,0.00,,2013-01-11 06:42:00,
2013-01-10 23:52:00,49.0,28.0,29.86,SW,233,4.0,10.0,44,0.00,,,0.00,,2013-01-11 06:52:00,